When you browse on this site, cookies collect data to enhance your experience and personalize the content and advertising you see.
Visit our Privacy Policy to learn more. By continuing to use the site, you agree to this use of cookies and data.
  • In Switzerland
  • List of Countries
  • For 7 days
  • Water Temperature
  • Weather Map
  • Weather Widgets
  • user-avatar
    Login

    Hourly Weather Borisovskie Vyselki

    Today, 23 September, Monday

    Time Temperature Precipitation Wind Pressure Humidity
    00:00 -1°C° 0 mm 6 mps 736 mmHg 81%
    01:00 -1°C° 0 mm 6 mps 736 mmHg 83%
    02:00 -1°C° 0 mm 6 mps 737 mmHg 85%
    03:00 0°C° 0 mm 5 mps 737 mmHg 88%
    04:00 0°C° 0 mm 5 mps 738 mmHg 86%
    05:00 0°C° 0 mm 5 mps 738 mmHg 84%
    06:00 0°C° 0 mm 5 mps 739 mmHg 82%
    07:00 +1°C° 0 mm 5 mps 740 mmHg 77%
    08:00 +2°C° 0 mm 5 mps 740 mmHg 72%
    09:00 +3°C° 0 mm 6 mps 741 mmHg 65%
    10:00 +4°C° 0 mm 6 mps 741 mmHg 63%
    11:00 +5°C° 0 mm 6 mps 741 mmHg 60%
    12:00 +7°C° 0 mm 6 mps 742 mmHg 57%
    13:00 +7°C° 0 mm 6 mps 742 mmHg 57%
    14:00 +7°C° 0 mm 6 mps 742 mmHg 56%
    15:00 +8°C° 0 mm 6 mps 742 mmHg 56%
    16:00 +7°C° 0 mm 5 mps 742 mmHg 59%
    17:00 +6°C° 0 mm 4 mps 742 mmHg 61%
    18:00 +6°C° 0 mm 4 mps 743 mmHg 64%
    19:00 +5°C° 0 mm 4 mps 743 mmHg 66%
    20:00 +5°C° 0 mm 4 mps 743 mmHg 69%
    21:00 +4°C° 0 mm 4 mps 744 mmHg 71%
    22:00 +3°C° 0 mm 3 mps 744 mmHg 73%
    23:00 +2°C° 0 mm 3 mps 744 mmHg 76%

    Tomorrow, 24 September, Tuesday

    Time Temperature Precipitation Wind Pressure Humidity
    00:00 +3°C° 0 mm 2 mps 744 mmHg 78%
    01:00 +2°C° 0 mm 2 mps 744 mmHg 79%
    02:00 +2°C° 0 mm 2 mps 744 mmHg 79%
    03:00 +1°C° 0 mm 2 mps 745 mmHg 80%
    04:00 +1°C° 0 mm 2 mps 744 mmHg 81%
    05:00 +1°C° 0 mm 2 mps 744 mmHg 82%
    06:00 +1°C° 0 mm 2 mps 744 mmHg 83%
    07:00 +1°C° 0 mm 3 mps 744 mmHg 76%
    08:00 +2°C° 0 mm 3 mps 745 mmHg 70%
    09:00 +4°C° 0 mm 3 mps 745 mmHg 64%
    10:00 +4°C° 0 mm 3 mps 745 mmHg 61%
    11:00 +5°C° 0 mm 4 mps 744 mmHg 58%
    12:00 +6°C° 0 mm 4 mps 744 mmHg 55%
    13:00 +6°C° 0 mm 4 mps 744 mmHg 55%
    14:00 +6°C° 0 mm 4 mps 744 mmHg 56%
    15:00 +6°C° 0 mm 4 mps 744 mmHg 56%
    16:00 +6°C° 0 mm 4 mps 744 mmHg 59%
    17:00 +5°C° 0 mm 3 mps 744 mmHg 62%
    18:00 +4°C° 0 mm 3 mps 744 mmHg 65%
    19:00 +4°C° 0 mm 3 mps 744 mmHg 69%
    20:00 +4°C° 0 mm 2 mps 744 mmHg 72%
    21:00 +3°C° 0 mm 2 mps 744 mmHg 76%
    22:00 +2°C° 0 mm 2 mps 744 mmHg 78%
    23:00 +2°C° 0 mm 2 mps 744 mmHg 81%

    Day after tomorrow, 25 September, Wednesday

    Time Temperature Precipitation Wind Pressure Humidity
    00:00 +2°C° 0 mm 2 mps 744 mmHg 84%
    01:00 +1°C° 0 mm 2 mps 744 mmHg 85%
    02:00 +1°C° 0 mm 2 mps 745 mmHg 87%
    03:00 +1°C° 0 mm 2 mps 745 mmHg 88%
    04:00 +1°C° 0 mm 2 mps 745 mmHg 89%
    05:00 -1°C° 0 mm 2 mps 745 mmHg 90%
    06:00 -1°C° 0 mm 2 mps 745 mmHg 91%
    07:00 +2°C° 0 mm 2 mps 745 mmHg 85%
    08:00 +3°C° 0 mm 2 mps 745 mmHg 79%
    09:00 +4°C° 0 mm 2 mps 745 mmHg 72%
    10:00 +6°C° 0 mm 2 mps 745 mmHg 67%
    11:00 +7°C° 0 mm 2 mps 745 mmHg 61%
    12:00 +8°C° 0 mm 3 mps 745 mmHg 56%
    13:00 +9°C° 0.1 mm 3 mps 745 mmHg 55%
    14:00 +9°C° 0.1 mm 3 mps 745 mmHg 53%
    15:00 +9°C° 0.1 mm 3 mps 745 mmHg 52%
    16:00 +8°C° 0 mm 3 mps 745 mmHg 56%
    17:00 +7°C° 0 mm 2 mps 744 mmHg 60%
    18:00 +8°C° 0 mm 1 mps 744 mmHg 65%
    19:00 +7°C° 0 mm 1 mps 744 mmHg 66%
    20:00 +7°C° 0 mm 1 mps 745 mmHg 68%
    21:00 +6°C° 0 mm 1 mps 745 mmHg 69%
    22:00 +6°C° 0 mm 1 mps 745 mmHg 70%
    23:00 +6°C° 0 mm 1 mps 745 mmHg 71%

    26 September, Thursday

    Time Temperature Precipitation Wind Pressure Humidity
    00:00 +6°C° 0 mm 1 mps 745 mmHg 72%
    01:00 +6°C° 0 mm 1 mps 745 mmHg 73%
    02:00 +6°C° 0 mm 1 mps 745 mmHg 74%
    03:00 +6°C° 0 mm 1 mps 745 mmHg 75%
    04:00 +5°C° 0 mm 1 mps 745 mmHg 78%
    05:00 +5°C° 0 mm 1 mps 745 mmHg 81%
    06:00 +4°C° 0 mm 1 mps 745 mmHg 84%
    07:00 +5°C° 0 mm 1 mps 745 mmHg 79%
    08:00 +7°C° 0 mm 1 mps 745 mmHg 75%
    09:00 +8°C° 0 mm 1 mps 745 mmHg 70%
    10:00 +9°C° 0 mm 1 mps 745 mmHg 64%
    11:00 +10°C° 0 mm 1 mps 745 mmHg 58%
    12:00 +11°C° 0 mm 1 mps 745 mmHg 53%
    13:00 +11°C° 0 mm 1 mps 745 mmHg 52%
    14:00 +10°C° 0 mm 2 mps 745 mmHg 51%
    15:00 +10°C° 0 mm 2 mps 744 mmHg 50%
    16:00 +11°C° 0 mm 1 mps 744 mmHg 53%
    17:00 +10°C° 0 mm 1 mps 744 mmHg 55%
    18:00 +10°C° 0 mm 1 mps 744 mmHg 58%
    19:00 +9°C° 0 mm 1 mps 744 mmHg 60%
    20:00 +9°C° 0 mm 1 mps 744 mmHg 61%
    21:00 +8°C° 0 mm 0 mps 744 mmHg 62%
    22:00 +8°C° 0 mm 1 mps 744 mmHg 64%
    23:00 +7°C° 0 mm 1 mps 744 mmHg 67%

    27 September, Friday

    Time Temperature Precipitation Wind Pressure Humidity
    00:00 +7°C° 0 mm 1 mps 744 mmHg 69%
    01:00 +6°C° 0 mm 0 mps 744 mmHg 69%
    02:00 +6°C° 0 mm 0 mps 744 mmHg 69%
    03:00 +6°C° 0 mm 0 mps 744 mmHg 69%
    04:00 +5°C° 0 mm 0 mps 744 mmHg 72%
    05:00 +6°C° 0 mm 1 mps 744 mmHg 75%
    06:00 +5°C° 0 mm 1 mps 744 mmHg 78%
    07:00 +6°C° 0 mm 1 mps 744 mmHg 73%
    08:00 +6°C° 0 mm 2 mps 744 mmHg 68%
    09:00 +7°C° 0 mm 2 mps 744 mmHg 64%
    10:00 +9°C° 0 mm 2 mps 744 mmHg 59%
    11:00 +10°C° 0 mm 3 mps 744 mmHg 53%
    12:00 +11°C° 0 mm 3 mps 744 mmHg 48%
    13:00 +11°C° 0 mm 3 mps 744 mmHg 49%
    14:00 +11°C° 0 mm 3 mps 744 mmHg 49%
    15:00 +12°C° 0 mm 4 mps 744 mmHg 50%
    16:00 +11°C° 0 mm 3 mps 744 mmHg 56%
    17:00 +10°C° 0 mm 3 mps 744 mmHg 61%
    18:00 +9°C° 0 mm 2 mps 744 mmHg 67%
    19:00 +8°C° 0 mm 2 mps 744 mmHg 70%
    20:00 +8°C° 0 mm 2 mps 744 mmHg 73%
    21:00 +7°C° 0 mm 2 mps 744 mmHg 76%
    22:00 +7°C° 0 mm 2 mps 745 mmHg 79%
    23:00 +7°C° 0 mm 2 mps 745 mmHg 82%

    28 September, Saturday

    Time Temperature Precipitation Wind Pressure Humidity
    00:00 +6°C° 0 mm 2 mps 745 mmHg 85%
    01:00 +6°C° 0 mm 2 mps 745 mmHg 86%
    02:00 +6°C° 0 mm 2 mps 745 mmHg 87%
    03:00 +6°C° 0 mm 2 mps 745 mmHg 88%
    04:00 +6°C° 0 mm 2 mps 746 mmHg 90%
    05:00 +5°C° 0 mm 2 mps 746 mmHg 92%
    06:00 +4°C° 0 mm 2 mps 746 mmHg 94%
    07:00 +6°C° 0 mm 2 mps 746 mmHg 89%
    08:00 +7°C° 0 mm 2 mps 746 mmHg 85%
    09:00 +8°C° 0 mm 2 mps 746 mmHg 80%
    10:00 +9°C° 0 mm 2 mps 747 mmHg 74%
    11:00 +10°C° 0 mm 2 mps 747 mmHg 69%
    12:00 +12°C° 0 mm 1 mps 747 mmHg 63%
    13:00 +13°C° 0 mm 2 mps 747 mmHg 61%
    14:00 +13°C° 0 mm 2 mps 747 mmHg 59%
    15:00 +13°C° 0 mm 2 mps 746 mmHg 57%
    16:00 +13°C° 0 mm 1 mps 746 mmHg 60%
    17:00 +12°C° 0 mm 1 mps 746 mmHg 63%
    18:00 +12°C° 0 mm 1 mps 746 mmHg 65%
    19:00 +12°C° 0 mm 1 mps 746 mmHg 66%
    20:00 +12°C° 0 mm 1 mps 746 mmHg 66%
    21:00 +11°C° 0 mm 1 mps 747 mmHg 66%
    22:00 +11°C° 0 mm 1 mps 747 mmHg 66%
    23:00 +10°C° 0 mm 2 mps 746 mmHg 66%
    Show more